DW7554 Weather Reports


time (UTC)temp
F
wind
direction
speed
knots
gust
knots
rain 1hr
in
rain 24hr
in
rain mn
in
humidity
%
barometer
mb
20260507064514 48 245 3.5 5.2 0.00 0.22 0.03 93 1006.7
20260507063013 48 263 3.5 5.2 0.00 0.22 0.03 93 1006.8
20260507061510 48 101 0.0 0.9 0.00 0.22 0.03 96 1006.7
20260507060009 46 75 0.0 2.6 0.00 0.22 0.03 96 1006.6
20260507054503 45 101 0.9 1.7 0.00 0.22 0.03 96 1006.6
20260507053005 45 83 0.9 1.7 0.00 0.22 0.03 97 1006.5
20260507051502 44 96 0.9 1.7 0.00 0.22 0.03 97 1006.5
20260507044602 42 85 0.0 0.9 0.00 0.22 0.03 97 1006.3
20260507043057 0 0.0 0.0 0.00 0.22 0.03 1006.2
20260507041555 0 0.0 0.0 0.00 0.22 0.03 1006.1
20260507040048 0 0.0 0.0 0.00 0.22 0.03 1006.1
20260507034557 0 0.0 0.0 0.00 0.22 0.03 1006.1
20260507033057 42 124 0.0 0.9 0.00 0.22 0.03 100 1006.0
20260507031538 43 123 0.9 1.7 0.00 0.22 0.03 96 1006.0
20260507030035 43 127 0.0 1.7 0.00 0.22 0.03 96 1006.0
20260507024534 43 234 0.0 0.0 0.00 0.22 0.03 96 1005.8
20260507023032 44 235 0.0 0.0 0.00 0.22 0.03 96 1005.7
20260507021529 44 235 0.0 0.9 0.00 0.22 0.03 96 1005.8
20260507020032 45 221 0.0 1.7 0.00 0.22 0.03 96 1005.7
20260507014528 45 221 0.0 1.7 0.00 0.22 0.03 96 1005.6
20260507013026 45 195 0.0 0.9 0.00 0.22 0.03 96 1005.4
20260507011526 45 195 0.0 0.9 0.00 0.22 0.03 96 1005.5
20260507010032 45 235 0.0 2.6 0.01 0.22 0.03 96 1005.6
20260507004525 45 58 0.0 1.7 0.02 0.22 0.03 96 1005.4
20260507003023 45 266 0.0 2.6 0.02 0.22 0.03 96 1005.6
20260507001523 45 242 0.9 7.0 0.02 0.22 0.03 96 1005.7
20260507000025 45 276 0.9 7.0 0.02 0.21 0.02 96 1005.6
20260506234540 45 71 0.0 7.0 0.02 0.20 0.02 96 1005.9
20260506233020 45 74 0.0 7.0 0.01 0.20 0.01 96 1005.7
20260506231519 45 291 0.0 7.0 0.01 0.20 0.01 96 1005.7
20260506230018 45 43 0.0 7.0 0.00 0.19 0.00 96 1005.6
20260506224525 46 43 0.0 7.0 0.00 0.19 0.00 95 1005.4
20260506223014 46 63 0.0 7.0 0.01 0.19 0.00 95 1005.2
20260506221514 46 242 0.0 7.0 0.02 0.19 0.00 95 1005.1
20260506220026 46 296 1.7 7.0 0.02 0.19 0.19 95 1005.1
20260506214509 46 61 0.0 7.0 0.03 0.19 0.19 95 1005.0
20260506213007 47 83 0.0 7.0 0.02 0.18 0.18 94 1005.1
20260506211511 47 239 0.9 7.0 0.02 0.17 0.17 94 1005.2
20260506210005 47 248 0.0 7.0 0.01 0.17 0.17 94 1005.0
20260506204505 48 297 0.0 7.0 0.01 0.16 0.16 94 1004.8
20260506203004 47 271 0.9 7.0 0.01 0.16 0.16 94 1004.8
20260506201503 48 275 0.9 7.0 0.02 0.16 0.16 92 1004.6
20260506200004 48 299 0.9 7.0 0.02 0.16 0.16 93 1004.6
20260506194502 48 94 0.9 7.0 0.02 0.15 0.15 94 1004.5
20260506193001 48 256 0.0 7.0 0.02 0.15 0.15 94 1004.3
20260506191501 49 281 1.7 7.0 0.02 0.14 0.14 93 1004.2
20260506190003 49 294 3.5 7.0 0.04 0.14 0.14 93 1004.0
20260506184603 49 290 3.5 7.0 0.03 0.13 0.13 93 1003.7
20260506183103 49 295 3.5 6.1 0.02 0.13 0.13 93 1003.4
20260506181625 50 264 0.9 5.2 0.02 0.12 0.12 93 1003.1
20260506180059 50 239 1.7 5.2 0.00 0.10 0.10 94 1002.8
20260506174557 50 281 2.6 5.2 0.00 0.10 0.10 93 1002.7
20260506173122 50 221 1.7 4.3 0.00 0.10 0.10 91 1002.3
20260506171603 50 255 1.7 4.3 0.01 0.10 0.10 93 1002.3
20260506170104 50 290 1.7 4.3 0.01 0.10 0.10 92 1002.5
20260506164553 50 274 2.6 4.3 0.02 0.10 0.10 91 1002.5
20260506163055 50 262 1.7 4.3 0.02 0.10 0.10 88 1002.8
20260506161552 50 303 1.7 4.3 0.02 0.09 0.09 88 1002.6
20260506160107 50 281 2.6 12.2 0.02 0.09 0.09 88 1002.8
20260506154550 50 295 3.5 12.2 0.02 0.09 0.09 87 1002.8
20260506153052 51 257 2.6 12.2 0.03 0.09 0.09 88 1002.9
20260506151548 51 280 2.6 12.2 0.03 0.08 0.08 88 1003.0
20260506150050 50 285 2.6 12.2 0.03 0.08 0.08 90 1003.0
20260506144550 50 268 2.6 12.2 0.02 0.07 0.07 89 1003.1
20260506143046 51 288 4.3 12.2 0.02 0.06 0.06 88 1003.0
20260506141545 51 263 2.6 12.2 0.02 0.05 0.05 89 1003.1
20260506140045 51 287 2.6 12.2 0.02 0.05 0.05 90 1003.3
20260506134547 51 283 4.3 12.2 0.02 0.05 0.05 90 1003.4
20260506133042 51 269 4.3 12.2 0.01 0.03 0.03 90 1003.5
20260506131556 51 291 5.2 12.2 0.02 0.03 0.03 86 1003.5
20260506130046 52 268 1.7 12.2 0.03 0.03 0.03 87 1003.3
20260506124540 52 240 4.3 12.2 0.03 0.03 0.03 87 1003.4
20260506123039 52 280 3.5 12.2 0.02 0.02 0.02 86 1003.6
20260506121538 53 266 6.1 12.2 0.01 0.01 0.01 83 1003.5
20260506120037 54 283 7.8 12.2 0.00 0.00 0.00 76 1003.4
20260506114535 55 255 1.7 12.2 0.00 0.00 0.00 71 1003.4
20260506113035 55 301 0.9 12.2 0.00 0.00 0.00 74 1003.6
20260506111532 54 252 1.7 12.2 0.00 0.00 0.00 72 1003.8
20260506110031 55 237 2.6 12.2 0.00 0.00 0.00 71 1003.8
20260506104531 55 253 5.2 12.2 0.00 0.00 0.00 67 1003.9
20260506103037 56 273 3.5 12.2 0.00 0.00 0.00 65 1004.0
20260506101530 56 138 0.9 11.3 0.00 0.00 0.00 63 1004.2
20260506100034 55 33 1.7 11.3 0.00 0.00 0.00 65 1004.3
20260506094534 55 187 0.9 11.3 0.00 0.00 0.00 66 1004.4
20260506093028 55 245 4.3 11.3 0.00 0.00 0.00 65 1004.3
20260506091526 54 301 1.7 11.3 0.00 0.00 0.00 66 1004.4
20260506090021 53 277 3.5 11.3 0.00 0.00 0.00 68 1004.6
20260506084522 52 274 0.9 11.3 0.00 0.00 0.00 72 1004.5
20260506083020 52 285 3.5 11.3 0.00 0.00 0.00 73 1004.6
20260506081518 53 245 3.5 11.3 0.00 0.00 0.00 70 1004.7
20260506073015 54 271 3.5 10.4 0.00 0.00 0.00 61 1004.6
20260506071513 53 262 4.3 10.4 0.00 0.00 0.00 65 1004.6